Time,TemperatureF,DewpointF,PressureIn,WindDirection,WindDirectionDegrees,WindSpeedMPH,WindSpeedGustMPH,Humidity,HourlyPrecipIn,Conditions,Clouds,dailyrainin,SoftwareType,DateUTC
2013-06-02 00:01:00,73.0,55.0,29.70,WSW,245,1.0,2.0,53,0.00,,,0.00,,2013-06-02 07:01:00,
2013-06-02 00:11:00,73.0,55.0,29.70,WSW,245,1.0,2.0,53,0.00,,,0.00,,2013-06-02 07:11:00,
2013-06-02 00:21:00,73.0,55.0,29.70,SE,139,0.0,1.0,54,0.00,,,0.00,,2013-06-02 07:21:00,
2013-06-02 00:31:00,72.0,54.0,29.70,SE,146,1.0,3.0,54,0.00,,,0.00,,2013-06-02 07:31:00,
2013-06-02 00:42:00,71.0,54.0,29.70,SE,138,1.0,2.0,55,0.00,,,0.00,,2013-06-02 07:42:00,
2013-06-02 00:52:00,71.0,54.0,29.70,SE,138,1.0,2.0,55,0.00,,,0.00,,2013-06-02 07:52:00,
2013-06-02 01:01:00,71.0,54.0,29.70,South,177,0.0,1.0,56,0.00,,,0.00,,2013-06-02 08:01:00,
2013-06-02 01:11:00,71.0,54.0,29.70,South,177,0.0,1.0,56,0.00,,,0.00,,2013-06-02 08:11:00,
2013-06-02 01:21:00,70.0,55.0,29.70,SE,125,1.0,2.0,58,0.00,,,0.00,,2013-06-02 08:21:00,
2013-06-02 01:31:00,69.0,55.0,29.70,SE,132,0.0,2.0,61,0.00,,,0.00,,2013-06-02 08:31:00,
2013-06-02 01:41:00,68.0,54.0,29.69,SE,133,0.0,0.0,60,0.00,,,0.00,,2013-06-02 08:41:00,
2013-06-02 01:51:00,68.0,54.0,29.69,SE,133,0.0,0.0,60,0.00,,,0.00,,2013-06-02 08:51:00,
2013-06-02 02:01:00,69.0,55.0,29.69,SW,229,0.0,2.0,62,0.00,,,0.00,,2013-06-02 09:01:00,
2013-06-02 02:11:00,69.0,55.0,29.69,SW,229,0.0,2.0,62,0.00,,,0.00,,2013-06-02 09:11:00,
2013-06-02 02:21:00,69.0,53.0,29.69,WSW,252,0.0,2.0,57,0.00,,,0.00,,2013-06-02 09:21:00,
2013-06-02 02:33:00,69.0,53.0,29.69,SSW,208,0.0,1.0,57,0.00,,,0.00,,2013-06-02 09:33:00,
2013-06-02 02:42:00,69.0,53.0,29.69,SSW,208,0.0,1.0,57,0.00,,,0.00,,2013-06-02 09:42:00,
2013-06-02 02:53:00,68.0,53.0,29.69,SSW,208,0.0,0.0,59,0.00,,,0.00,,2013-06-02 09:53:00,
2013-06-02 03:02:00,67.0,54.0,29.69,SSW,208,0.0,0.0,63,0.00,,,0.00,,2013-06-02 10:02:00,
2013-06-02 03:12:00,67.0,54.0,29.69,SSW,208,0.0,0.0,63,0.00,,,0.00,,2013-06-02 10:12:00,
2013-06-02 03:22:00,65.0,53.0,29.68,SSW,208,0.0,0.0,65,0.00,,,0.00,,2013-06-02 10:22:00,
2013-06-02 03:32:00,65.0,53.0,29.68,SE,140,0.0,1.0,66,0.00,,,0.00,,2013-06-02 10:32:00,
2013-06-02 03:42:00,65.0,53.0,29.68,SE,140,0.0,1.0,66,0.00,,,0.00,,2013-06-02 10:42:00,
2013-06-02 03:52:00,65.0,56.0,29.68,SE,132,0.0,2.0,73,0.00,,,0.00,,2013-06-02 10:52:00,
2013-06-02 04:02:00,64.0,55.0,29.68,SE,141,0.0,2.0,72,0.00,,,0.00,,2013-06-02 11:02:00,
2013-06-02 04:12:00,64.0,55.0,29.68,SE,141,0.0,2.0,72,0.00,,,0.00,,2013-06-02 11:12:00,
2013-06-02 04:21:00,63.0,53.0,29.68,SE,141,0.0,1.0,71,0.00,,,0.00,,2013-06-02 11:21:00,
2013-06-02 04:32:00,63.0,53.0,29.68,SE,141,0.0,1.0,70,0.00,,,0.00,,2013-06-02 11:32:00,
2013-06-02 04:42:00,63.0,53.0,29.68,SE,141,0.0,1.0,70,0.00,,,0.00,,2013-06-02 11:42:00,
2013-06-02 04:52:00,63.0,52.0,29.68,SE,141,0.0,1.0,68,0.00,,,0.00,,2013-06-02 11:52:00,
2013-06-02 05:01:00,63.0,52.0,29.68,SW,222,0.0,0.0,67,0.00,,,0.00,,2013-06-02 12:01:00,
2013-06-02 05:11:00,63.0,52.0,29.68,SW,222,0.0,0.0,67,0.00,,,0.00,,2013-06-02 12:11:00,
2013-06-02 05:21:00,63.0,52.0,29.68,South,169,0.0,1.0,68,0.00,,,0.00,,2013-06-02 12:21:00,
2013-06-02 05:31:00,62.0,52.0,29.68,South,169,0.0,0.0,70,0.00,,,0.00,,2013-06-02 12:31:00,
2013-06-02 05:42:00,62.0,52.0,29.68,South,169,0.0,0.0,70,0.00,,,0.00,,2013-06-02 12:42:00,
2013-06-02 05:52:00,62.0,52.0,29.68,South,169,0.0,0.0,71,0.00,,,0.00,,2013-06-02 12:52:00,
2013-06-02 06:01:00,61.0,52.0,29.68,South,169,0.0,0.0,72,0.00,,,0.00,,2013-06-02 13:01:00,
2013-06-02 06:11:00,61.0,52.0,29.68,South,169,0.0,0.0,72,0.00,,,0.00,,2013-06-02 13:11:00,
2013-06-02 06:21:00,61.0,53.0,29.69,South,169,0.0,0.0,75,0.00,,,0.00,,2013-06-02 13:21:00,
2013-06-02 06:32:00,62.0,54.0,29.69,South,169,0.0,0.0,75,0.00,,,0.00,,2013-06-02 13:32:00,
2013-06-02 06:41:00,62.0,54.0,29.69,South,169,0.0,0.0,75,0.00,,,0.00,,2013-06-02 13:41:00,
2013-06-02 06:52:00,62.0,55.0,29.69,SE,142,0.0,1.0,78,0.00,,,0.00,,2013-06-02 13:52:00,
2013-06-02 07:01:00,62.0,54.0,29.69,SE,132,1.0,3.0,74,0.00,,,0.00,,2013-06-02 14:01:00,
2013-06-02 07:11:00,64.0,54.0,29.69,SE,138,0.0,1.0,71,0.00,,,0.00,,2013-06-02 14:11:00,
2013-06-02 07:21:00,64.0,54.0,29.69,SE,138,0.0,1.0,71,0.00,,,0.00,,2013-06-02 14:21:00,
2013-06-02 07:32:00,67.0,55.0,29.70,SE,142,0.0,1.0,66,0.00,,,0.00,,2013-06-02 14:32:00,
2013-06-02 07:41:00,67.0,55.0,29.70,SE,142,0.0,1.0,66,0.00,,,0.00,,2013-06-02 14:41:00,
2013-06-02 07:51:00,69.0,55.0,29.70,SSE,149,0.0,2.0,62,0.00,,,0.00,,2013-06-02 14:51:00,
2013-06-02 08:01:00,70.0,55.0,29.70,SSW,203,0.0,3.0,59,0.00,,,0.00,,2013-06-02 15:01:00,
2013-06-02 08:11:00,70.0,55.0,29.70,SSW,203,0.0,3.0,59,0.00,,,0.00,,2013-06-02 15:11:00,
2013-06-02 08:21:00,71.0,55.0,29.70,SE,134,0.0,2.0,57,0.00,,,0.00,,2013-06-02 15:21:00,
2013-06-02 08:32:00,71.0,55.0,29.70,WSW,245,2.0,4.0,57,0.00,,,0.00,,2013-06-02 15:32:00,
2013-06-02 08:42:00,72.0,55.0,29.70,WSW,239,1.0,4.0,56,0.00,,,0.00,,2013-06-02 15:42:00,
2013-06-02 08:53:00,72.0,55.0,29.70,WSW,239,1.0,4.0,56,0.00,,,0.00,,2013-06-02 15:53:00,
2013-06-02 09:03:00,73.0,55.0,29.70,SW,229,1.0,3.0,54,0.00,,,0.00,,2013-06-02 16:03:00,
2013-06-02 09:13:00,73.0,55.0,29.70,SW,229,1.0,3.0,54,0.00,,,0.00,,2013-06-02 16:13:00,
2013-06-02 09:22:00,74.0,56.0,29.69,SE,141,2.0,3.0,53,0.00,,,0.00,,2013-06-02 16:22:00,
2013-06-02 09:32:00,77.0,56.0,29.69,WSW,257,1.0,3.0,48,0.00,,,0.00,,2013-06-02 16:32:00,
2013-06-02 09:42:00,77.0,56.0,29.69,WSW,257,1.0,3.0,48,0.00,,,0.00,,2013-06-02 16:42:00,
2013-06-02 09:52:00,78.0,55.0,29.69,ESE,122,0.0,2.0,45,0.00,,,0.00,,2013-06-02 16:52:00,
2013-06-02 10:02:00,79.0,55.0,29.68,SW,231,2.0,3.0,43,0.00,,,0.00,,2013-06-02 17:02:00,
2013-06-02 10:12:00,79.0,55.0,29.68,SW,231,2.0,3.0,43,0.00,,,0.00,,2013-06-02 17:12:00,
2013-06-02 10:22:00,80.0,55.0,29.68,North,8,1.0,5.0,43,0.00,,,0.00,,2013-06-02 17:22:00,
2013-06-02 10:32:00,81.0,56.0,29.68,SW,226,1.0,3.0,42,0.00,,,0.00,,2013-06-02 17:32:00,
2013-06-02 10:42:00,82.0,55.0,29.68,SW,226,1.0,5.0,40,0.00,,,0.00,,2013-06-02 17:42:00,
2013-06-02 10:51:00,82.0,55.0,29.68,SW,226,1.0,5.0,40,0.00,,,0.00,,2013-06-02 17:51:00,
2013-06-02 11:01:00,84.0,56.0,29.67,SW,236,2.0,6.0,38,0.00,,,0.00,,2013-06-02 18:01:00,
2013-06-02 11:11:00,85.0,53.0,29.67,SW,217,1.0,4.0,34,0.00,,,0.00,,2013-06-02 18:11:00,
2013-06-02 11:21:00,85.0,53.0,29.67,SW,217,1.0,4.0,34,0.00,,,0.00,,2013-06-02 18:21:00,
2013-06-02 11:31:00,86.0,54.0,29.67,SE,134,0.0,5.0,33,0.00,,,0.00,,2013-06-02 18:31:00,
2013-06-02 11:42:00,87.0,53.0,29.67,SSE,160,0.0,3.0,31,0.00,,,0.00,,2013-06-02 18:42:00,
2013-06-02 11:52:00,87.0,53.0,29.67,SSE,160,0.0,3.0,31,0.00,,,0.00,,2013-06-02 18:52:00,
2013-06-02 12:01:00,88.0,53.0,29.66,East,84,0.0,3.0,30,0.00,,,0.00,,2013-06-02 19:01:00,
2013-06-02 12:11:00,88.0,53.0,29.66,East,84,0.0,3.0,30,0.00,,,0.00,,2013-06-02 19:11:00,
2013-06-02 12:21:00,88.0,54.0,29.66,NE,36,2.0,6.0,31,0.00,,,0.00,,2013-06-02 19:21:00,
2013-06-02 12:31:00,90.0,54.0,29.65,East,95,1.0,4.0,30,0.00,,,0.00,,2013-06-02 19:31:00,
2013-06-02 12:41:00,90.0,54.0,29.65,East,95,1.0,4.0,30,0.00,,,0.00,,2013-06-02 19:41:00,
2013-06-02 12:52:00,90.0,52.0,29.65,SSW,203,1.0,3.0,28,0.00,,,0.00,,2013-06-02 19:52:00,
2013-06-02 13:02:00,91.0,53.0,29.65,WSW,250,1.0,4.0,28,0.00,,,0.00,,2013-06-02 20:02:00,
2013-06-02 13:11:00,91.0,53.0,29.65,WSW,250,1.0,4.0,28,0.00,,,0.00,,2013-06-02 20:11:00,
2013-06-02 13:21:00,92.0,54.0,29.64,ENE,58,0.0,4.0,28,0.00,,,0.00,,2013-06-02 20:21:00,
2013-06-02 13:31:00,93.0,53.0,29.64,SW,233,2.0,5.0,26,0.00,,,0.00,,2013-06-02 20:31:00,
2013-06-02 13:42:00,93.0,53.0,29.64,SW,233,2.0,5.0,26,0.00,,,0.00,,2013-06-02 20:42:00,
2013-06-02 13:51:00,93.0,56.0,29.63,West,263,1.0,4.0,29,0.00,,,0.00,,2013-06-02 20:51:00,
2013-06-02 14:01:00,93.0,54.0,29.63,ENE,68,0.0,3.0,27,0.00,,,0.00,,2013-06-02 21:01:00,
2013-06-02 14:11:00,93.0,54.0,29.63,ENE,68,0.0,3.0,27,0.00,,,0.00,,2013-06-02 21:11:00,
2013-06-02 14:21:00,95.0,50.0,29.62,ESE,122,1.0,5.0,22,0.00,,,0.00,,2013-06-02 21:21:00,
2013-06-02 14:33:00,96.0,51.0,29.62,NNW,338,1.0,6.0,22,0.00,,,0.00,,2013-06-02 21:33:00,
2013-06-02 14:42:00,96.0,51.0,29.62,NNW,338,1.0,6.0,22,0.00,,,0.00,,2013-06-02 21:42:00,
2013-06-02 14:53:00,97.0,53.0,29.61,WNW,284,1.0,3.0,23,0.00,,,0.00,,2013-06-02 21:53:00,
2013-06-02 15:02:00,97.0,52.0,29.61,WSW,257,2.0,7.0,22,0.00,,,0.00,,2013-06-02 22:02:00,
2013-06-02 15:12:00,97.0,52.0,29.61,WSW,257,2.0,7.0,22,0.00,,,0.00,,2013-06-02 22:12:00,
2013-06-02 15:22:00,97.0,51.0,29.61,SSW,198,1.0,5.0,21,0.00,,,0.00,,2013-06-02 22:22:00,
2013-06-02 15:33:00,97.0,53.0,29.61,WNW,291,2.0,4.0,23,0.00,,,0.00,,2013-06-02 22:33:00,
2013-06-02 15:42:00,97.0,53.0,29.61,WNW,291,2.0,4.0,23,0.00,,,0.00,,2013-06-02 22:42:00,
2013-06-02 15:52:00,98.0,53.0,29.60,WNW,287,1.0,4.0,22,0.00,,,0.00,,2013-06-02 22:52:00,
2013-06-02 16:02:00,97.0,52.0,29.59,WSW,238,2.0,6.0,22,0.00,,,0.00,,2013-06-02 23:02:00,
2013-06-02 16:12:00,97.0,52.0,29.59,WSW,238,2.0,6.0,22,0.00,,,0.00,,2013-06-02 23:12:00,
2013-06-02 16:22:00,97.0,51.0,29.60,WSW,242,1.0,6.0,21,0.00,,,0.00,,2013-06-02 23:22:00,
2013-06-02 16:32:00,98.0,51.0,29.59,SW,233,2.0,5.0,21,0.00,,,0.00,,2013-06-02 23:32:00,
2013-06-02 16:42:00,98.0,51.0,29.59,SW,233,2.0,5.0,21,0.00,,,0.00,,2013-06-02 23:42:00,
2013-06-02 16:52:00,97.0,49.0,29.59,NNW,328,0.0,5.0,20,0.00,,,0.00,,2013-06-02 23:52:00,
2013-06-02 17:01:00,96.0,48.0,29.59,West,260,1.0,5.0,20,0.00,,,0.00,,2013-06-03 00:01:00,
2013-06-02 17:11:00,96.0,50.0,29.58,WSW,240,2.0,4.0,21,0.00,,,0.00,,2013-06-03 00:11:00,
2013-06-02 17:21:00,96.0,50.0,29.58,WSW,240,2.0,4.0,21,0.00,,,0.00,,2013-06-03 00:21:00,
2013-06-02 17:32:00,97.0,49.0,29.57,SSW,211,0.0,4.0,20,0.00,,,0.00,,2013-06-03 00:32:00,
2013-06-02 17:42:00,97.0,49.0,29.57,West,262,0.0,4.0,20,0.00,,,0.00,,2013-06-03 00:42:00,
2013-06-02 17:51:00,97.0,49.0,29.57,West,262,0.0,4.0,20,0.00,,,0.00,,2013-06-03 00:51:00,
2013-06-02 18:01:00,97.0,49.0,29.57,WSW,238,1.0,5.0,20,0.00,,,0.00,,2013-06-03 01:01:00,
2013-06-02 18:11:00,97.0,49.0,29.57,WSW,238,1.0,5.0,20,0.00,,,0.00,,2013-06-03 01:11:00,
2013-06-02 18:21:00,97.0,51.0,29.56,SW,235,0.0,3.0,21,0.00,,,0.00,,2013-06-03 01:21:00,
2013-06-02 18:32:00,95.0,56.0,29.56,West,264,3.0,8.0,27,0.00,,,0.00,,2013-06-03 01:32:00,
2013-06-02 18:41:00,95.0,56.0,29.56,West,264,3.0,8.0,27,0.00,,,0.00,,2013-06-03 01:41:00,
2013-06-02 18:52:00,93.0,55.0,29.57,SSW,210,3.0,8.0,28,0.00,,,0.00,,2013-06-03 01:52:00,
2013-06-02 19:02:00,91.0,54.0,29.57,WSW,249,6.0,11.0,29,0.00,,,0.00,,2013-06-03 02:02:00,
2013-06-02 19:11:00,91.0,54.0,29.57,WSW,249,6.0,11.0,29,0.00,,,0.00,,2013-06-03 02:11:00,
2013-06-02 19:22:00,90.0,53.0,29.57,West,267,5.0,8.0,29,0.00,,,0.00,,2013-06-03 02:22:00,
2013-06-02 19:32:00,88.0,53.0,29.57,SW,233,6.0,9.0,30,0.00,,,0.00,,2013-06-03 02:32:00,
2013-06-02 19:42:00,88.0,53.0,29.57,SW,233,6.0,9.0,30,0.00,,,0.00,,2013-06-03 02:42:00,
2013-06-02 19:52:00,87.0,52.0,29.57,WSW,238,3.0,8.0,30,0.00,,,0.00,,2013-06-03 02:52:00,
2013-06-02 20:02:00,86.0,52.0,29.57,SW,231,3.0,9.0,31,0.00,,,0.00,,2013-06-03 03:02:00,
2013-06-02 20:11:00,85.0,53.0,29.58,West,260,3.0,8.0,33,0.00,,,0.00,,2013-06-03 03:11:00,
2013-06-02 20:21:00,85.0,53.0,29.58,West,260,3.0,8.0,33,0.00,,,0.00,,2013-06-03 03:21:00,
2013-06-02 20:33:00,84.0,53.0,29.58,WSW,255,2.0,8.0,34,0.00,,,0.00,,2013-06-03 03:33:00,
2013-06-02 20:42:00,84.0,53.0,29.58,WSW,255,2.0,8.0,34,0.00,,,0.00,,2013-06-03 03:42:00,
2013-06-02 20:53:00,83.0,53.0,29.58,SSW,207,2.0,6.0,36,0.00,,,0.00,,2013-06-03 03:53:00,
2013-06-02 21:02:00,81.0,53.0,29.59,WSW,238,2.0,6.0,38,0.00,,,0.00,,2013-06-03 04:02:00,
2013-06-02 21:12:00,81.0,53.0,29.59,WSW,238,2.0,6.0,38,0.00,,,0.00,,2013-06-03 04:12:00,
2013-06-02 21:23:00,79.0,53.0,29.59,WSW,239,3.0,6.0,40,0.00,,,0.00,,2013-06-03 04:23:00,
2013-06-02 21:33:00,77.0,52.0,29.59,SW,230,4.0,7.0,42,0.00,,,0.00,,2013-06-03 04:33:00,
2013-06-02 21:42:00,77.0,52.0,29.59,SW,230,4.0,7.0,42,0.00,,,0.00,,2013-06-03 04:42:00,
2013-06-02 21:52:00,76.0,52.0,29.60,SW,219,3.0,7.0,43,0.00,,,0.00,,2013-06-03 04:52:00,
2013-06-02 22:02:00,75.0,52.0,29.60,WSW,253,1.0,6.0,45,0.00,,,0.00,,2013-06-03 05:02:00,
2013-06-02 22:12:00,75.0,52.0,29.61,WSW,252,1.0,7.0,44,0.00,,,0.00,,2013-06-03 05:12:00,
2013-06-02 22:22:00,75.0,52.0,29.61,WSW,252,1.0,7.0,44,0.00,,,0.00,,2013-06-03 05:22:00,
2013-06-02 22:32:00,74.0,51.0,29.61,WSW,239,3.0,6.0,45,0.00,,,0.00,,2013-06-03 05:32:00,
2013-06-02 22:42:00,74.0,51.0,29.61,WSW,239,3.0,6.0,45,0.00,,,0.00,,2013-06-03 05:42:00,
2013-06-02 22:52:00,73.0,50.0,29.62,WSW,257,3.0,6.0,45,0.00,,,0.00,,2013-06-03 05:52:00,
2013-06-02 23:02:00,73.0,51.0,29.62,SW,222,2.0,5.0,46,0.00,,,0.00,,2013-06-03 06:02:00,
2013-06-02 23:12:00,73.0,51.0,29.62,SW,222,2.0,5.0,46,0.00,,,0.00,,2013-06-03 06:12:00,
2013-06-02 23:22:00,72.0,51.0,29.62,SSE,158,1.0,4.0,48,0.00,,,0.00,,2013-06-03 06:22:00,
2013-06-02 23:32:00,71.0,51.0,29.63,SE,146,1.0,5.0,50,0.00,,,0.00,,2013-06-03 06:32:00,
2013-06-02 23:42:00,71.0,51.0,29.63,SE,146,1.0,5.0,50,0.00,,,0.00,,2013-06-03 06:42:00,
2013-06-02 23:52:00,70.0,52.0,29.63,SSE,156,1.0,5.0,52,0.00,,,0.00,,2013-06-03 06:52:00,